User: anonymous   Login
Location: Axtheid
(49.6213°N, 11.8205°E)
Time: 00:02:39
(UTC+00:00)
Language:

S3M - Orbit

View from above orbital plane
View from above orbital plane
View from above satellite
View from above satellite

Ground track
Ground track

The orbit data is extracted from the following two-line orbital elements,

1 12508U 81053B   21110.43978892  .00000033  00000-0  18467-4 0  9994
2 12508  82.9612 183.6507 0036217 240.8116 118.9416 13.76370308  8261
Epoch (UTC): 20 April 2021 10:33:17
Eccentricity: 0.0036217
inclination: 82.9612°
perigee height: 950 km
apogee height: 1003 km
right ascension of ascending node: 183.6507°
argument of perigee: 240.8116°
revolutions per day: 13.76370308
mean anomaly at epoch: 118.9416°
orbit number at epoch: 826

The dashed part of the orbit path shows where the satellite is in the earth's shadow,  

DLR